GFSNIL_con_3kmhel_057.txt.gz
Helicity
10 -17 11 22 -2 -6 2 -11 115 17 -0 -2 12 5 22 6 12 30 17 16 14 32
85 -23 -18 -0 5 15 1 26 67 30 1 3 1 1 3 1 15 -11 5 16 14 23
117 75 35 88 88 -8 26 19 57 20 -11 -2 1 6 12 -0 3 -0 -0 13 17 9
142 99 84 111 105 76 49 54 11 22 -11 -16 -7 1 14 -22 -8 19 -3 -0 6 -10
166 136 109 77 101 103 72 53 46 14 14 -19 -16 7 21 12 -7 11 10 1 -5 -0
149 153 131 113 93 91 99 95 53 51 39 58 10 22 35 28 9 -0 11 -17 -21 -15
152 159 149 162 115 108 102 111 85 83 89 84 59 36 24 38 28 20 7 1 -28 -32
148 159 172 162 154 122 112 113 117 94 93 93 60 36 47 43 54 40 12 2 -1 -29
158 151 137 159 168 147 131 113 113 104 94 86 47 50 84 77 37 34 35 13 4 -21
195 177 160 155 172 158 140 141 120 113 108 87 80 44 109 113 59 18 21 16 11 -16
200 190 172 193 168 164 161 157 160 139 139 125 90 73 81 119 82 24 -8 -9 -1 -5
185 192 161 192 198 183 161 157 173 154 143 143 116 110 92 112 64 4 -2 -11 -1 -4
169 176 163 157 184 204 199 174 160 151 145 143 139 143 135 134 38 9 -8 -16 -14 13
123 146 133 145 170 139 138 128 123 138 153 140 124 112 133 138 86 -2 7 -34 -25 -26

GFSNIL_con_3kmhel_060.txt.gz
Helicity
15 -44 -33 31 -6 27 -21 106 133 108 92 39 23 16 8 16 14 15 -4 -0 -24 15
74 14 31 41 36 32 -46 16 170 114 82 50 42 13 39 6 29 8 12 14 -8 -6
125 82 107 -12 67 39 16 -17 108 98 53 51 23 15 36 3 23 26 18 6 35 13
134 112 89 122 26 81 -28 50 106 131 121 91 39 17 27 -3 -34 31 27 -5 7 53
167 140 102 97 120 102 74 70 87 142 105 88 75 36 37 30 -24 19 13 -0 -11 11
153 150 120 108 109 126 122 129 112 106 120 116 91 48 46 53 23 -21 25 15 12 8
155 158 150 145 130 173 145 133 113 101 111 116 108 68 50 65 63 24 -5 11 3 -9
129 138 150 142 152 139 174 147 129 117 106 112 111 90 72 62 71 71 38 7 20 17
150 160 127 142 151 159 146 147 140 112 102 116 116 106 100 95 63 69 67 26 -5 -7
195 199 185 151 145 159 158 163 145 126 117 109 120 105 99 132 107 73 60 57 42 9
213 240 217 178 148 158 171 159 155 136 121 127 129 128 89 130 152 117 78 56 54 61
228 233 261 229 178 172 181 165 145 138 115 119 128 150 137 136 139 131 121 89 58 70
203 225 247 254 221 194 191 178 171 132 125 137 143 159 180 195 131 126 144 114 61 48
172 198 227 207 191 171 171 162 139 109 107 116 141 155 187 206 173 129 151 122 91 59

GFSNIL_con_3kmhel_063.txt.gz
Helicity
-77 -74 -57 14 23 41 35 28 21 66 45 34 41 31 14 -1 -6 -15 -19 -32 -20 -2
-55 -87 -72 -28 20 8 67 25 45 108 86 57 44 47 23 9 7 -10 -12 -26 -50 -15
42 -27 9 -18 -19 28 22 78 87 158 126 89 46 48 39 15 3 -1 -1 -9 -16 -26
62 18 21 30 -17 58 54 84 104 150 125 91 71 65 69 25 3 29 17 -4 1 12
126 96 35 42 37 -9 39 91 124 124 92 60 61 74 69 44 10 7 17 21 7 1
120 122 86 43 84 72 31 -10 128 161 167 128 92 72 68 58 23 5 -16 17 8 -0
146 120 107 94 85 142 110 85 37 118 145 188 161 121 82 80 50 19 8 -4 -4 -3
181 140 118 91 99 114 147 109 136 133 163 130 132 108 87 88 94 61 19 6 5 -9
160 159 130 126 108 127 121 120 99 108 132 158 123 104 105 88 98 101 81 33 8 3
205 162 161 160 154 145 123 148 156 110 95 85 113 122 116 98 75 82 89 81 59 19
254 213 176 180 178 167 160 134 111 131 135 111 92 120 121 112 79 77 80 85 94 89
307 263 228 207 208 207 196 169 132 126 133 138 113 119 122 120 94 87 105 117 110 123
375 318 293 273 239 237 218 183 195 144 133 149 138 145 128 137 138 96 114 129 140 148
406 370 342 303 272 257 242 218 191 178 166 146 155 135 135 134 121 109 146 157 144 134

GFSNIL_con_3kmhel_069.txt.gz
Helicity
14 -19 -26 -36 -29 -6 7 13 -2 15 2 6 7 1 7 6 -11 -17 -14 -28 -4 -5
-2 -29 -27 -21 -22 -13 15 28 18 30 21 7 12 18 10 2 6 -18 -30 -30 -30 -22
20 6 -13 -12 -13 -6 -6 5 16 18 16 15 10 13 9 -1 -15 -6 -17 -29 -35 -37
98 129 130 -1 3 -1 1 -26 -1 2 2 11 26 17 13 4 -10 -8 -18 -29 -40 -39
159 173 116 10 -9 14 1 10 -16 -20 -19 0 44 39 37 26 -2 0 -11 -19 -33 -21
168 168 153 136 125 89 42 6 22 7 -16 7 45 80 62 47 25 1 -9 -24 -22 -12
212 192 163 161 163 142 134 85 29 59 48 -7 13 43 70 57 37 18 -6 -17 -29 -34
199 186 175 164 155 181 176 136 134 116 111 86 67 47 42 63 42 31 20 5 -6 -26
198 197 176 162 178 146 145 184 179 142 130 125 108 58 47 67 31 8 13 15 9 7
192 220 217 219 201 166 149 148 154 170 176 128 98 79 56 74 79 37 8 11 -3 -27
213 209 218 224 218 189 171 152 154 143 159 167 152 124 106 98 82 84 27 8 -1 -11
112 155 182 227 249 219 195 178 151 151 146 160 148 156 152 183 142 62 27 22 35 18
204 116 132 167 221 235 233 195 193 155 148 145 138 157 177 192 190 86 68 68 62 -4
157 115 76 57 119 229 267 254 214 189 174 153 146 142 180 201 182 117 108 15 56 87

GFSNIL_con_3kmhel_072.txt.gz
Helicity
48 57 31 -5 -3 -9 -9 10 9 21 -2 -10 -11 -4 2 9 -1 -12 -4 1 -3 1
37 51 48 10 -8 -12 -17 -9 3 19 17 -6 -2 -5 -3 8 12 -3 -16 1 -5 -4
72 34 35 15 -7 1 1 -14 -20 7 15 14 17 8 3 2 1 4 -6 -17 -11 -16
34 61 12 21 11 4 30 26 -23 -15 -7 -7 0 11 11 5 2 8 -1 -12 -18 -11
170 139 74 0 17 122 44 55 6 -27 -23 -19 -11 -2 21 21 21 21 9 -1 -9 -10
190 212 128 56 62 114 92 70 51 19 -18 -26 -20 -11 13 40 32 29 19 0 -3 -7
149 146 159 149 106 95 126 110 97 79 69 40 28 -4 -11 10 40 35 25 14 4 -6
139 151 148 127 134 126 131 125 144 151 126 92 74 61 51 29 0 25 29 8 2 -1
152 146 146 149 159 156 120 128 153 154 167 159 137 91 77 94 83 51 30 2 -6 -8
150 165 161 148 140 128 139 131 130 157 166 160 164 149 112 104 114 103 92 85 100 40
122 133 158 152 152 143 140 140 143 140 167 158 159 162 146 137 134 131 119 123 120 104
49 104 111 138 151 134 153 159 150 152 164 157 132 149 156 193 180 136 100 134 128 114
198 145 110 118 115 137 165 151 162 144 160 176 154 151 160 179 163 131 130 132 125 86
149 139 139 116 121 160 152 126 151 158 148 141 157 154 173 188 174 161 156 141 132 150

GFSNIL_con_3kmhel_075.txt.gz
Helicity
60 42 25 11 -0 3 3 -11 -11 -1 -8 -9 -9 -2 4 9 7 5 9 20 24 25
62 55 32 25 7 -8 -5 -13 -25 -19 -14 -7 -6 -3 1 13 5 1 5 -0 8 15
33 37 34 21 16 7 -5 -5 -12 -24 -22 -19 -3 -1 4 6 9 3 3 7 5 5
45 33 31 24 19 10 3 11 1 -10 -22 -19 -23 -12 1 14 15 12 3 2 1 1
68 58 28 38 26 19 2 13 19 18 8 -23 -19 -25 -0 8 13 23 9 4 -0 -1
118 90 32 28 46 46 17 14 23 28 19 -10 -31 -25 -19 -8 -4 6 12 6 8 -7
148 129 65 44 51 56 57 38 28 28 27 6 -22 5 -18 -7 -6 -2 8 8 10 1
70 120 118 97 80 70 70 65 49 33 34 18 -19 -1 49 49 37 28 12 -0 1 5
76 90 87 99 99 102 88 69 71 67 57 37 8 -10 64 68 60 45 42 42 18 5
66 71 88 80 71 79 93 87 78 59 61 72 65 68 92 101 78 74 68 57 53 56
59 62 71 70 76 81 81 86 87 64 61 70 77 99 103 129 79 88 82 80 70 65
99 36 24 44 85 87 86 84 73 62 67 71 68 93 117 143 78 74 75 87 79 82
89 72 80 33 51 59 87 93 86 66 62 57 55 74 113 141 86 71 72 77 70 94
214 104 107 79 51 61 81 109 106 80 77 69 58 49 112 160 128 107 99 89 91 80